TimeEST,TemperatureF,Dew PointF,Humidity,Sea Level PressureIn,VisibilityMPH,Wind Direction,Wind SpeedMPH,Gust SpeedMPH,PrecipitationIn,Events,Conditions,WindDirDegrees,DateUTC
12:54 AM,27.0,18.0,69,30.15,9.0,WSW,11.5,-,0.00,Snow,Light Snow,240,2012-12-31 05:54:00
1:54 AM,28.0,19.9,72,30.14,9.0,West,17.3,23.0,0.00,Snow,Light Snow,260,2012-12-31 06:54:00
2:54 AM,28.0,21.0,75,30.13,9.0,WSW,12.7,-,0.00,Snow,Light Snow,240,2012-12-31 07:54:00
3:26 AM,28.4,19.4,69,30.11,9.0,WSW,12.7,-,0.00,Snow,Light Snow,250,2012-12-31 08:26:00
3:54 AM,28.9,21.0,72,30.12,9.0,WSW,10.4,-,0.00,Snow,Light Snow,250,2012-12-31 08:54:00
4:54 AM,28.9,19.9,69,30.10,9.0,WSW,10.4,-,0.00,Snow,Light Snow,240,2012-12-31 09:54:00
5:54 AM,28.0,19.9,72,30.09,9.0,WSW,10.4,-,0.00,Snow,Light Snow,240,2012-12-31 10:54:00
6:29 AM,28.4,19.4,69,30.08,9.0,WSW,10.4,19.6,0.00,Snow,Light Snow,240,2012-12-31 11:29:00
6:54 AM,28.9,19.9,69,30.09,9.0,WSW,12.7,-,0.00,Snow,Light Snow,240,2012-12-31 11:54:00
7:54 AM,28.9,19.9,69,30.07,10.0,SW,12.7,-,0.00,,Overcast,220,2012-12-31 12:54:00
8:54 AM,28.9,19.9,69,30.06,10.0,SW,13.8,-,N/A,,Overcast,220,2012-12-31 13:54:00
9:54 AM,30.0,19.0,64,30.05,10.0,SSW,10.4,-,N/A,,Overcast,210,2012-12-31 14:54:00
10:14 AM,30.2,19.4,64,30.04,10.0,SSW,10.4,-,N/A,,Overcast,200,2012-12-31 15:14:00
10:54 AM,32.0,19.0,59,30.02,10.0,SW,12.7,-,N/A,,Overcast,220,2012-12-31 15:54:00
11:54 AM,33.1,19.0,56,29.97,10.0,SW,11.5,-,N/A,,Overcast,220,2012-12-31 16:54:00
12:54 PM,34.0,19.0,54,29.94,10.0,SW,8.1,-,N/A,,Overcast,230,2012-12-31 17:54:00
1:54 PM,35.1,19.0,52,29.91,10.0,SW,11.5,-,N/A,,Mostly Cloudy,230,2012-12-31 18:54:00
2:54 PM,36.0,19.0,50,29.89,10.0,SSW,10.4,18.4,N/A,,Overcast,210,2012-12-31 19:54:00
3:54 PM,35.1,19.0,52,29.88,10.0,SW,8.1,-,N/A,,Overcast,230,2012-12-31 20:54:00
4:54 PM,34.0,21.0,59,29.87,10.0,SW,6.9,-,N/A,,Overcast,220,2012-12-31 21:54:00
5:54 PM,34.0,21.0,59,29.86,10.0,SSW,8.1,-,N/A,,Overcast,210,2012-12-31 22:54:00
6:54 PM,34.0,21.9,61,29.84,10.0,SSW,6.9,-,N/A,,Overcast,200,2012-12-31 23:54:00
7:54 PM,35.1,23.0,61,29.84,10.0,WSW,17.3,23.0,N/A,,Overcast,250,2013-01-01 00:54:00
8:54 PM,35.1,24.1,64,29.83,10.0,WSW,19.6,26.5,N/A,,Overcast,250,2013-01-01 01:54:00
9:13 PM,35.6,24.8,65,29.82,10.0,WSW,15.0,24.2,N/A,,Overcast,250,2013-01-01 02:13:00
9:54 PM,35.1,25.0,67,29.82,10.0,West,15.0,24.2,N/A,,Overcast,260,2013-01-01 02:54:00
10:44 PM,35.6,24.8,65,29.82,10.0,WSW,13.8,-,N/A,,Overcast,240,2013-01-01 03:44:00
10:54 PM,35.1,25.0,67,29.82,10.0,WSW,13.8,25.3,N/A,,Overcast,240,2013-01-01 03:54:00
11:54 PM,35.1,25.0,67,29.82,10.0,WSW,12.7,-,0.00,Snow,Light Snow,240,2013-01-01 04:54:00